TimeCST,TemperatureF,Dew PointF,Humidity,Sea Level PressureIn,VisibilityMPH,Wind Direction,Wind SpeedMPH,Gust SpeedMPH,PrecipitationIn,Events,Conditions,WindDirDegrees,DateUTC
12:40 AM,75.2,69.8,83,29.93,10.0,Calm,Calm,-,N/A,,Partly Cloudy,0,2012-11-16 06:40:00
1:40 AM,75.2,69.8,83,29.93,10.0,Calm,Calm,-,N/A,,Partly Cloudy,0,2012-11-16 07:40:00
2:40 AM,75.2,69.8,83,29.93,10.0,Calm,Calm,-,N/A,,Partly Cloudy,0,2012-11-16 08:40:00
3:45 AM,73.4,69.8,88,29.93,10.0,Calm,Calm,-,N/A,,Partly Cloudy,0,2012-11-16 09:45:00
4:40 AM,75.2,69.8,83,29.91,10.0,Calm,Calm,-,N/A,,Partly Cloudy,0,2012-11-16 10:40:00
5:44 AM,73.4,68.0,83,29.78,10.0,Calm,Calm,-,N/A,,Partly Cloudy,0,2012-11-16 11:44:00
6:40 AM,75.2,68.0,78,29.94,10.0,Calm,Calm,-,N/A,,Partly Cloudy,0,2012-11-16 12:40:00
7:40 AM,77.0,69.8,78,29.96,10.0,East,5.8,-,N/A,,Clear,90,2012-11-16 13:40:00
8:40 AM,84.2,75.2,74,29.92,10.0,Calm,Calm,-,N/A,,Clear,0,2012-11-16 14:40:00
9:40 AM,86.0,75.2,70,29.97,10.0,Calm,Calm,-,N/A,,Scattered Clouds,0,2012-11-16 15:40:00
10:42 AM,86.0,75.2,70,29.97,10.0,Calm,Calm,-,N/A,,Mostly Cloudy,0,2012-11-16 16:42:00
11:40 AM,86.0,77.0,74,29.91,10.0,SW,6.9,-,N/A,,Mostly Cloudy,230,2012-11-16 17:40:00
12:40 PM,86.0,77.0,74,29.92,10.0,SW,6.9,-,N/A,,Mostly Cloudy,230,2012-11-16 18:40:00
1:40 PM,86.0,75.2,70,29.91,10.0,SW,11.5,-,N/A,,Mostly Cloudy,230,2012-11-16 19:40:00
2:45 PM,86.0,77.0,74,29.86,10.0,WSW,11.5,-,N/A,,Mostly Cloudy,250,2012-11-16 20:45:00
3:45 PM,84.2,77.0,79,29.88,10.0,SW,8.1,-,N/A,,Scattered Clouds,220,2012-11-16 21:45:00
4:40 PM,84.2,75.2,74,29.89,10.0,SW,10.4,-,N/A,,Scattered Clouds,230,2012-11-16 22:40:00
5:40 PM,82.4,77.0,84,29.84,10.0,Calm,Calm,-,N/A,,Scattered Clouds,0,2012-11-16 23:40:00
6:40 PM,82.4,77.0,84,29.89,10.0,Calm,Calm,-,N/A,,Scattered Clouds,0,2012-11-17 00:40:00
7:40 PM,80.6,73.4,79,29.89,10.0,Calm,Calm,-,N/A,,Scattered Clouds,0,2012-11-17 01:40:00
8:40 PM,78.8,73.4,83,29.85,10.0,Calm,Calm,-,N/A,,Scattered Clouds,0,2012-11-17 02:40:00
9:40 PM,80.6,73.4,79,29.95,10.0,Calm,Calm,-,N/A,,Scattered Clouds,0,2012-11-17 03:40:00
10:40 PM,77.0,73.4,89,29.96,10.0,Calm,Calm,-,N/A,,Scattered Clouds,0,2012-11-17 04:40:00
11:40 PM,80.6,73.4,79,29.72,10.0,Calm,Calm,-,N/A,,Scattered Clouds,0,2012-11-17 05:40:00